DateTimeUTC,F1_A11,F1_S11,BsB_S11,BsG_S11,BsR_S11,BbsB_S11,BbsG_S11,BbsR_S11,BaB_A11,BaG_A11,BaR_A11,Tu_S11,T_S11,Uu_S11,U_S11,P_S11,T1_A11
2021-10-24T13:00:00Z,00000200,21000000,,,,,,,-000.08,0000.30,0000.08,17.8,24.5,,00.0,0633.4,31.0
2021-10-24T13:01:00Z,00000200,21000000,,,,,,,0000.05,-000.59,0000.26,17.8,24.5,,00.0,0633.4,31.0
2021-10-24T13:02:00Z,00000200,21000000,,,,,,,-000.01,0000.37,-000.24,17.8,24.5,,00.0,0633.3,31.0
2021-10-24T13:03:00Z,00000200,61000000,,,,,,,0000.81,0000.62,0000.79,17.8,24.5,,00.0,0633.3,31.1
2021-10-24T13:04:00Z,00000200,41000000,0000.04,-000.02,0000.13,0000.06,-000.10,0000.04,0001.05,0001.11,0000.85,17.9,24.5,,00.0,0634.0,31.1
2021-10-24T13:05:00Z,00000200,01000000,0001.00,0000.14,0000.12,-000.03,-000.02,0000.16,0000.85,0000.89,0001.42,18.0,24.4,,00.0,0634.0,31.0
2021-10-24T13:06:00Z,00000200,01000000,0001.32,0000.07,0000.37,-000.07,0000.17,0000.10,0001.30,0001.07,0000.71,18.0,24.4,,00.0,0634.0,31.0
2021-10-24T13:07:00Z,00000200,01000000,0000.44,0000.15,0000.63,0000.11,0000.11,0000.24,0000.84,0000.71,0001.07,18.0,24.4,,00.0,0633.9,31.0
2021-10-24T13:08:00Z,00000200,01000000,0000.79,0000.37,0000.04,0000.32,0000.11,0000.16,0000.57,0000.48,0000.77,18.0,24.5,,00.0,0633.9,31.0
2021-10-24T13:09:00Z,00000200,01000000,-000.07,0000.36,0000.14,-000.20,0000.16,0000.35,0000.89,0001.35,0001.05,18.1,24.5,,00.0,0633.8,31.0
2021-10-24T13:10:00Z,00000200,01000000,0000.83,0000.12,0000.47,0000.44,-000.14,0000.08,0000.89,0000.81,0000.93,18.0,24.5,,00.0,0633.7,31.0
2021-10-24T13:11:00Z,00000200,01000000,0001.10,0000.17,0000.65,0000.18,0000.37,0000.51,0001.65,0001.50,0001.54,18.0,24.5,,00.0,0633.6,31.0
2021-10-24T13:12:00Z,00000200,01000000,0000.34,0000.53,0000.69,0000.23,0000.08,0000.49,0000.74,0000.96,0001.01,18.0,24.5,,00.0,0633.6,31.0
2021-10-24T13:13:00Z,00000200,01000000,0001.37,0000.33,0000.11,0000.14,0000.11,0000.14,0001.32,0001.08,0000.85,18.0,24.5,,00.0,0633.5,31.0
2021-10-24T13:14:00Z,00000200,01000000,-000.01,0000.32,0000.25,-000.36,0000.34,0000.13,0001.30,0001.74,0001.46,18.0,24.5,,00.0,0633.6,31.0
2021-10-24T13:15:00Z,00000200,01000000,0000.13,0000.10,0000.13,-000.08,0000.07,0000.20,0000.24,0000.10,0000.36,18.0,24.5,,00.0,0633.5,31.0
2021-10-24T13:16:00Z,00000200,01000000,0000.17,-000.05,0000.20,0000.02,0000.26,0000.21,0000.34,0000.44,0000.89,18.0,24.4,,00.0,0633.5,31.0
2021-10-24T13:17:00Z,00000200,01000000,0000.77,0000.26,0000.46,0000.12,0000.12,0000.40,0001.17,0001.20,0000.56,18.0,24.5,,00.0,0633.5,31.0
2021-10-24T13:18:00Z,00000200,01000000,0000.12,0000.12,0000.50,0000.15,0000.28,0000.33,0000.32,0000.56,0000.94,18.0,24.5,,00.0,0633.4,31.0
2021-10-24T13:19:00Z,00000200,01000000,0000.21,-000.18,0000.04,0000.02,0000.34,-000.06,0001.14,0000.95,0000.52,18.1,24.5,,00.0,0633.4,31.0
2021-10-24T13:20:00Z,00000200,01000000,0000.52,0000.16,0000.26,-000.25,-000.07,0000.08,0000.76,0000.48,0000.56,18.1,24.5,,00.0,0633.3,31.0
2021-10-24T13:21:00Z,00000200,01000000,0000.89,-000.15,0000.32,0000.29,0000.28,0000.16,0000.39,0000.44,0000.40,18.1,24.5,,00.0,0633.4,31.1
2021-10-24T13:22:00Z,00000200,01000000,0000.07,0000.11,0000.24,-000.65,0000.43,0000.01,0000.34,0000.58,0000.76,18.1,24.5,,00.0,0633.3,31.0
2021-10-24T13:23:00Z,00000200,01000000,0000.79,0000.06,0000.01,-000.00,-000.04,-000.15,0000.93,0000.89,0001.06,18.1,24.5,,00.0,0633.3,31.0
2021-10-24T13:24:00Z,00000200,01000000,0000.99,-000.14,0000.36,0000.32,-000.02,0000.12,0000.56,0000.70,0000.59,18.1,24.5,,00.0,0633.3,31.0
2021-10-24T13:25:00Z,00000200,01000000,0000.67,0000.42,0000.13,0000.85,0000.22,0000.14,0000.53,-000.05,0000.01,18.1,24.5,,00.0,0633.2,31.0
2021-10-24T13:26:00Z,00000200,01000000,0000.51,0000.34,0000.17,-000.16,-000.00,0000.16,0000.28,0000.58,0001.04,18.1,24.5,,00.0,0633.2,31.0
2021-10-24T13:27:00Z,00000200,01000000,0000.87,0000.13,0000.37,-000.18,0000.39,0000.20,0001.02,0001.05,0000.60,18.1,24.5,,00.0,0633.3,31.0
2021-10-24T13:28:00Z,00000200,01000000,0000.81,-000.09,-000.15,0000.55,0000.32,0000.22,0000.37,0000.45,0000.50,18.0,24.5,,00.0,0633.2,31.0
2021-10-24T13:29:00Z,00000200,01000000,0000.76,-000.12,0000.31,0000.28,0000.42,0000.35,0000.56,0000.67,0000.50,18.0,24.5,,00.0,0633.2,31.0
2021-10-24T13:30:00Z,00000200,01000000,0000.79,0000.04,0000.01,0000.13,-000.06,0000.28,0000.89,0000.72,0000.90,18.0,24.5,,00.0,0633.3,31.0
2021-10-24T13:31:00Z,00000200,01000000,0000.67,0000.29,0000.10,0000.14,0000.17,-000.01,0000.57,0000.26,0000.62,18.0,24.5,,00.0,0633.2,31.0
2021-10-24T13:32:00Z,00000200,01000000,0000.59,-000.10,0000.26,-000.15,0000.24,0000.20,0000.44,0000.97,0000.71,18.0,24.5,,00.0,0633.2,31.0
2021-10-24T13:33:00Z,00000200,01000000,0000.44,0000.39,-000.19,0000.11,0000.21,-000.07,0000.73,0000.32,0000.29,18.0,24.5,,00.0,0633.2,31.0
2021-10-24T13:34:00Z,00000200,01000000,0000.09,0000.07,0000.10,0000.21,0000.09,0000.10,0000.27,0000.40,0000.42,18.0,24.5,,00.0,0633.1,31.0
2021-10-24T13:35:00Z,00000200,01000000,0000.65,0000.32,0000.01,-000.08,0000.15,0000.04,0000.68,0001.01,0001.06,18.0,24.5,,00.0,0633.1,31.0
2021-10-24T13:36:00Z,00000200,01000000,0000.18,0000.22,-000.21,0000.31,0000.52,-000.06,0000.45,0000.48,0000.50,18.0,24.5,,00.0,0633.1,31.0
2021-10-24T13:37:00Z,00000200,01000000,0000.84,-000.03,0000.36,0000.57,0000.21,0000.20,0000.79,0000.58,0000.77,18.0,24.5,,00.0,0633.0,31.0
2021-10-24T13:38:00Z,00000200,01000000,0000.41,-000.15,0000.03,0000.35,-000.21,0000.09,0000.63,0000.34,0000.03,18.0,24.5,,00.0,0633.0,31.0
2021-10-24T13:39:00Z,00000200,01000000,0000.06,-000.11,0000.12,-000.12,0000.28,0000.33,0000.58,0000.44,0000.82,18.0,24.5,,00.0,0632.9,31.0
2021-10-24T13:40:00Z,00000200,01000000,-000.02,0000.23,0000.10,0000.04,0000.20,-000.18,0000.57,0000.82,0000.51,18.0,24.5,,00.0,0633.0,31.0
2021-10-24T13:41:00Z,00000200,01000000,0000.03,-000.25,0000.12,0000.36,0000.24,-000.03,0000.31,0000.10,0000.31,18.0,24.5,,00.0,0633.0,31.0
2021-10-24T13:42:00Z,00000200,01000000,0000.53,-000.01,0000.54,0000.14,0000.35,-000.26,0000.20,0000.70,0000.32,18.0,24.5,,00.0,0632.9,31.0
2021-10-24T13:43:00Z,00000200,01000000,0000.33,-000.04,-000.14,0000.41,0000.12,0000.30,0000.56,0000.34,0000.50,18.0,24.5,,00.0,0632.9,31.0
2021-10-24T13:44:00Z,00000200,01000000,-000.31,0000.29,0000.20,0000.16,0000.07,-000.04,0000.73,0000.65,0000.92,18.0,24.5,,00.0,0632.8,31.0
2021-10-24T13:45:00Z,00000200,01000000,0000.40,0000.13,0000.50,0000.29,0000.18,-000.16,0000.52,0000.43,0000.25,18.0,24.5,,00.0,0632.8,31.0
2021-10-24T13:46:00Z,00000200,01000000,0000.41,-000.04,0000.28,0000.71,-000.12,-000.02,0000.54,0000.61,0000.36,18.0,24.5,,00.0,0632.6,31.0
2021-10-24T13:47:00Z,00000200,01000000,0000.57,0000.30,0000.17,0000.10,0000.31,0000.45,0000.31,0000.70,0000.54,18.0,24.5,,00.0,0632.6,31.0
2021-10-24T13:48:00Z,00000200,01000000,0001.12,-000.09,0000.20,-000.11,0000.39,0000.25,0001.10,0000.42,0000.92,18.0,24.5,,00.0,0632.6,31.1
2021-10-24T13:49:00Z,00000200,01000000,0000.01,0000.01,0000.22,0000.64,0000.16,0000.29,0000.46,0000.58,0000.38,18.0,24.5,,00.0,0632.5,31.0
2021-10-24T13:50:00Z,00000200,01000000,0000.21,0000.01,0000.05,0000.03,0000.01,0000.01,0000.29,0000.90,0000.59,18.0,24.5,,00.0,0632.5,31.0
2021-10-24T13:51:00Z,00000200,01000000,0000.13,-000.07,0000.31,0000.45,-000.07,0000.25,0000.77,0000.08,0000.83,18.0,24.5,,00.0,0632.5,31.0
2021-10-24T13:52:00Z,00000200,01000000,-000.08,-000.02,0000.18,-000.47,0000.10,0000.28,0000.34,0000.70,0000.32,18.0,24.6,,00.0,0632.4,31.0
2021-10-24T13:53:00Z,00000200,01000000,0000.84,0000.17,0000.36,0000.03,0000.01,0000.64,0000.77,0000.71,0000.80,18.0,24.6,,00.0,0632.4,31.0
2021-10-24T13:54:00Z,00000200,01000000,0000.48,0000.50,0000.49,0000.20,0000.15,-000.01,0000.35,0000.33,0000.29,18.0,24.5,,00.0,0632.4,31.0
2021-10-24T13:55:00Z,00000200,01000000,0001.19,0000.13,0000.07,-000.10,0000.20,0000.16,0000.51,0000.08,0000.20,18.0,24.5,,00.0,0632.4,31.0
2021-10-24T13:56:00Z,00000200,01000000,0000.72,-000.26,-000.10,0000.47,0000.10,0000.40,0000.46,0000.65,0000.61,18.0,24.5,,00.0,0632.4,31.0
2021-10-24T13:57:00Z,00000200,41000000,,,,,,,-000.05,0000.32,-000.14,18.0,24.6,,00.0,0632.1,31.0
2021-10-24T13:58:00Z,00000200,61000000,,,,,,,0000.11,0000.36,0000.17,17.7,24.6,,00.0,0631.4,31.0
2021-10-24T13:59:00Z,00000200,21000000,,,,,,,0000.27,0000.18,0000.44,17.7,24.7,,00.0,0631.3,31.0
